Regional Weather Roundup
Issued by NWS San Angelo, TX

Home | Current Version | Previous Version | Text Only | Print | Product List | Glossary On
Versions: 1 2 3 4 5 6 7 8 9 10 11 12 13 14 15 16 17 18 19 20 21 22 23 24 25 26 27 28 29 30 31 32 33 34 35 36 37 38 39 40 41 42 43 44 45 46 47 48 49 50
000
ASUS44 KSJT 221510
RWRSJT
WEST CENTRAL TEXAS REGIONAL WEATHER ROUNDUP
NATIONAL WEATHER SERVICE SAN ANGELO TX
900 AM CST THU FEB 22 2018

NOTE: "FAIR" INDICATES FEW OR NO CLOUDS BELOW 12,000 FEET WITH NO
SIGNIFICANT WEATHER AND/OR OBSTRUCTIONS TO VISIBILITY.

TXZ049-054-064>066-071>073-076>078-098-099-113-114-127-128-139-140-
154-155-168>170-221600
...LOCATIONS ACROSS WEST CENTRAL TEXAS...

CITY           SKY/WX    TMP DP  RH WIND       PRES   REMARKS
SAN ANGELO     CLOUDY    32  29  88 NE6       30.25F FOG     WCI  26
ABILENE        CLOUDY    27  27 100 N8        30.27R FOG     WCI  19
DYESS AFB      DRIZZLE   28  28 100 N5        30.28R WCI  23
JUNCTION       NOT AVBL
SWEETWATER     CLOUDY    28  28 100 N5        30.26F WCI  23
BROWNWOOD      CLOUDY    32  30  93 MISG      30.28S FOG
COLEMAN        CLOUDY    31  30  98 NW8       30.27S FOG     WCI  23
SONORA         CLOUDY    32  32 100 CALM      30.27R FOG
OZONA          CLOUDY    32  32 100 NE7       30.25R FOG     WCI  26
BRADY          NOT AVBL
$$

TEXAS PANHANDLE/OKLAHOMA PANHANDLE

CITY           SKY/WX    TMP DP  RH WIND       PRES   REMARKS
AMARILLO       CLOUDY    26  19  74 NW5       30.15F WCI  20
BORGER         FOG       24  22  91 NE6       30.18F VSB 1   WCI  17
CANADIAN       CLOUDY    26  24  95 CALM      30.23R
DALHART        FAIR      24   9  52 S9        30.13F WCI  14
DUMAS          CLOUDY    24  10  54 S3        30.15S
GUYMON         NOT AVBL
HEREFORD       PTSUNNY   29  18  63 CALM      30.16R
PAMPA          CLOUDY    25  24  94 N6        30.16F WCI  18
PERRYTON       CLOUDY    25  23  94 E3        30.19S
$$

SOUTHERN PANHANDLE/SOUTH PLAINS/ROLLING PLAINS

CITY           SKY/WX    TMP DP  RH WIND       PRES   REMARKS
LUBBOCK        FRZ DRZL  28  27  96 E5        30.18R FOG     WCI  23
SNYDER         CLOUDY    28  28  99 NE3       30.25R FOG
CHILDRESS      CLOUDY    28  26  92 E6        30.27R WCI  22
SEMINOLE       CLOUDY    29  29 100 CALM      30.22R FOG
$$

PERMIAN BASIN

CITY           SKY/WX    TMP DP  RH WIND       PRES   REMARKS
MIDLAND        CLOUDY    30  28  92 CALM      30.21R FOG
ODESSA         CLOUDY    29  28  96 CALM      30.21R FOG
WINK           CLOUDY    31  30  96 CALM      30.21R
$$

FAR WEST/SOUTHWEST MOUNTAINS/TRANS PECOS

CITY           SKY/WX    TMP DP  RH WIND       PRES   REMARKS
ALPINE         FAIR      32  26  80 CALM      30.18S
DRYDEN           N/A     38  30  73 N7        30.20R WCI  33
EL PASO        FAIR      41  25  53 S5        30.11R WCI  38
FORT STOCKTON  FOG       30  30 100 E3        30.20R VSB 1
GUADALUPE PASS FAIR      36  26  67 SW5       30.13R WCI  32
MARFA          FAIR      38  31  76 CALM      30.16R
PECOS          CLOUDY    32  27  82 CALM      30.24R
$$

DALLAS/FORT WORTH METROPLEX

CITY           SKY/WX    TMP DP  RH WIND       PRES   REMARKS
DFW AIRPORT    TSTM      36  35  96 E17       30.22F VSB 1/2 WCI  26
FTW MEACHAM    RAIN      34  33  96 VRB3      30.29R FOG
DAL-EXECUTIVE  TSTM      35  35 100 VRB5      30.26F FOG     WCI  31
GRAND PRAIRIE  LGT RAIN  36  36 100 SW5       30.31R WCI  32
ADDISON        RAIN      36  34  93 CALM      30.31R
MESQUITE       TSTM      36  36 100 NE9       30.25F WCI  29
LANCASTER      TSTM      35  34  97 NW13      30.31R WCI  26
$$

NORTH CENTRAL TEXAS

CITY           SKY/WX    TMP DP  RH WIND       PRES   REMARKS
SHRMAN/DENISON NOT AVBL
GAINESVILLE    FOG       32  31  97 CALM      30.32R VSB 3/4
BRIDGEPORT     CLOUDY    31  31 100 CALM      30.29R FOG
DENTON         RAIN      32  32 100 N14       30.23F FOG     WCI  22
WAXAHACHIE     LGT RAIN  34  34 100 NE8       30.26R WCI  27
GRANBURY       MIX PCPN  33  32  96 NW3       30.30R
$$

WESTERN NORTH TEXAS

CITY           SKY/WX    TMP DP  RH WIND       PRES   REMARKS
WICHITA FALLS  TSTM      30  28  92 N10       30.26R WCI  21
VERNON         CLOUDY    32  28  88 N6        30.28R WCI  26
BRECKENRIDGE   MIX PCPN  31  31 100 N3        30.28S
COMANCHE       CLOUDY    31  31 100 NW7       30.27R FOG     WCI  24
$$

CENTRAL AND SOUTH CENTRAL TEXAS

CITY           SKY/WX    TMP DP  RH WIND       PRES   REMARKS
AUSTIN/BERGSTM CLOUDY    38  38 100 N12       30.26R FOG     WCI  30
WACO           RAIN      35  34  96 N7        30.28S VSB 1   WCI  29
HILLSBORO      LGT RAIN  35  35 100 N7        30.26S WCI  29
TEMPLE         LGT RAIN  34  34 100 N7        30.28S FOG     WCI  28
KILLEEN-GRAY   CLOUDY    33  33 100 N7        30.25S WCI  27
FORT HOOD      CLOUDY    34  34 100 N5        30.24  FOG     WCI  30
GEORGETOWN     CLOUDY    36  35  96 N8        30.28S FOG     WCI  30
LAGO VISTA     CLOUDY    36  36 100 CALM      30.25R FOG
SAN MARCOS     CLOUDY    38  37  97 N14       30.26R FOG     WCI  30
NEW BRAUNFELS  CLOUDY    40  39  97 N10       30.22S FOG     WCI  33
RANDOLPH AFB   CLOUDY    42  40  95 N7        30.24R FOG     WCI  37
SAN ANTONIO    LGT RAIN  42  40  92 N7        30.23R VSB 1   WCI  38
STINSON        CLOUDY    45  42  89 N6        30.22R FOG
PLEASANTON     NOT AVBL
LA GRANGE      CLOUDY    42  41  98 N8        30.23S FOG     WCI  36
GIDDINGS       CLOUDY    37  36  99 N8        30.27R FOG     WCI  30
$$

EAST TEXAS

CITY           SKY/WX    TMP DP  RH WIND       PRES   REMARKS
PARIS          FOG       40  39  97 N7        30.28S VSB 1   WCI  35
CLARKSVILLE    NOT AVBL
TYLER          LGT RAIN  42  31  64 NE5       30.25R WCI  39
LONGVIEW       LGT RAIN  48  48 100 CALM      30.25S VSB 1/2
PALESTINE      CLOUDY    42  42 100 N3        30.26F FOG
NACOGDOCHES    CLOUDY    53  52  96 CALM      30.25S FOG
$$

TEXAS HILL COUNTRY AND EDWARDS PLATEAU

CITY           SKY/WX    TMP DP  RH WIND       PRES   REMARKS
LLANO          CLOUDY    36  34  93 NW6       30.32R FOG     WCI  31
HORSESHOE BAY  CLOUDY    35  35 100 NW6       30.27S FOG     WCI  30
KERRVILLE      CLOUDY    36  34  92 N9        30.23R FOG     WCI  29
FREDERICKSBRG  DRIZZLE   34  33  96 N6        30.23R WCI  29
ROCKSPRINGS    CLOUDY    34  34 100 NE7       30.25R FOG     WCI  28
HONDO          LGT RAIN  46  44  93 N8        30.24R FOG
UVALDE         CLOUDY    43  42  97 N6        30.25R FOG     WCI  39
DEL RIO        CLOUDY    42  38  85 W8        30.24R WCI  37
$$

SOUTHEAST TEXAS

CITY           SKY/WX    TMP DP  RH WIND       PRES   REMARKS
COLLEGE STN    FOG       42  42 100 N8        30.26R VSB 1   WCI  37
CALDWELL       RAIN      39  39  98 N7        30.27R FOG     WCI  34
CROCKETT       CLOUDY    46  45  93 N3        30.27S FOG
BRENHAM        FOG       44  44 100 N9        30.26R VSB 1   WCI  39
HUNTSVILLE     CLOUDY    46  45  96 VRB3      30.24S FOG
CONROE         FOG       51  51 100 VRB5      30.23S VSB 1
HOUSTON BUSH   FOG       57  57 100 N5        30.22R VSB 1/2
HOUSTON HOBBY  CLOUDY    59  59 100 NE5       30.21R FOG
PERLAND        CLOUDY    59  59 100 NE6       30.22S FOG
WHARTON        FOG       50  49  97 N7        30.22R VSB 1
$$

THE UPPER TEXAS COAST

CITY           SKY/WX    TMP DP  RH WIND       PRES   REMARKS
ORANGE         CLOUDY    73  72  99 S13       30.24S
PORT ARTHUR    CLOUDY    74  70  87 S14       30.21R
GALVESTON      FOG       70  69  97 E3        30.20F VSB 1/4
ANGLETON       LGT RAIN  59  57  93 N5        30.20R FOG
BAY CITY       FOG       56  56 100 NE3       30.20R VSB 1/2
$$

TEXAS COASTAL BEND, RIO GRANDE PLAINS DEEP SOUTH TEXAS

CITY           SKY/WX    TMP DP  RH WIND       PRES   REMARKS
VICTORIA       CLOUDY    48  47  96 N10       30.21S FOG
BEEVILLE       CLOUDY    46  46 100 N6        30.21S FOG
ROCKPORT       CLOUDY    54  53  97 N8        30.19S FOG
PORT ARANSAS   NOT AVBL
PORT LAVACA    FOG       51  50  96 N9        30.21R VSB 3/4
CORPUS CHRISTI DRIZZLE   51  51 100 N8        30.21R FOG
KINGSVILLE NAS DRZL/FOG  51  51 100 N7        30.22R VSB 3/4
COTULLA        CLOUDY    47  47 100 N5        30.24R
LAREDO         CLOUDY    47  44  90 N7        30.24S
BROWNSVILLE    LGT RAIN  54  53  97 NW9       30.20R FOG
PORT ISABEL    CLOUDY    53  50  89 NW13      30.18R FOG
HEBBRONVILLE   CLOUDY    47  47  97 N7        30.22R FOG
MCALLEN        CLOUDY    53  52  96 NW8       30.22R FOG
WESLACO        NOT AVBL
FALFURRIAS     CLOUDY    51  49  93 NW6       30.21S
EDINBURG       CLOUDY    52  50  93 NW6       30.22R FOG
$$




USA.gov is the U.S. government's official web portal to all federal, state and local government web resources and services.